GW4317 Weather Reports


time (UTC)temp
F
wind
direction
speed
knots
gust
knots
rain 1hr
in
rain 24hr
in
rain mn
in
humidity
%
barometer
mb
20260507023106 59 338 7.0 12.2 0.00 0.03 0.03 74 1016.6
20260507022600 60 4 7.8 13.9 0.00 0.03 0.03 74 1016.6
20260507022059 60 325 7.8 13.9 0.00 0.03 0.03 74 1016.5
20260507021603 60 338 8.7 14.8 0.00 0.03 0.03 73 1016.5
20260507021101 60 32 7.8 14.8 0.00 0.03 0.03 74 1016.4
20260507020600 60 9 7.0 14.8 0.00 0.03 0.03 73 1016.3
20260507020100 60 328 7.0 14.8 0.00 0.03 0.03 73 1016.3
20260507015600 60 19 7.0 13.9 0.00 0.03 0.03 74 1016.1
20260507015100 61 344 7.8 11.3 0.00 0.03 0.03 74 1015.9
20260507014606 61 333 6.1 12.2 0.00 0.03 0.03 75 1015.7
20260507014101 61 23 7.8 12.2 0.00 0.03 0.03 75 1015.5
20260507013600 61 21 6.1 12.2 0.00 0.03 0.03 74 1015.3
20260507013058 61 19 7.8 11.3 0.00 0.03 0.03 74 1015.3
20260507012600 61 12 4.3 8.7 0.00 0.03 0.03 75 1015.1
20260507012100 61 3 5.2 8.7 0.00 0.03 0.03 75 1014.9
20260507011601 61 6 5.2 11.3 0.00 0.03 0.03 75 1014.9
20260507011102 62 19 6.1 13.0 0.00 0.03 0.03 75 1014.9
20260507010600 62 32 7.0 13.0 0.00 0.03 0.03 74 1014.7
20260507010109 62 338 6.1 12.2 0.00 0.03 0.03 74 1014.6
20260507005601 62 20 5.2 12.2 0.00 0.03 0.03 74 1014.6
20260507005059 62 356 4.3 9.6 0.00 0.03 0.03 75 1014.6
20260507004601 62 321 5.2 9.6 0.00 0.03 0.03 74 1014.5
20260507004101 62 332 5.2 10.4 0.00 0.03 0.03 74 1014.4
20260507003601 62 27 4.3 12.2 0.00 0.03 0.03 74 1014.4
20260507003100 62 6 7.0 12.2 0.00 0.03 0.03 74 1014.4
20260507002603 62 25 6.1 10.4 0.00 0.03 0.03 74 1014.5
20260507002100 62 351 5.2 9.6 0.00 0.03 0.03 74 1014.3
20260507001605 62 44 4.3 7.8 0.00 0.03 0.03 74 1014.2
20260507001100 62 6 4.3 10.4 0.00 0.03 0.03 74 1014.2
20260507000600 62 29 5.2 10.4 0.00 0.03 0.03 74 1014.1
20260507000100 62 23 5.2 10.4 0.00 0.03 0.03 73 1014.0
20260506235559 63 44 7.0 11.3 0.00 0.03 0.03 73 1013.9
20260506235100 63 23 6.1 12.2 0.00 0.03 0.03 73 1013.9
20260506234603 63 42 7.0 12.2 0.00 0.03 0.03 73 1013.9
20260506234102 63 18 5.2 12.2 0.00 0.03 0.03 73 1013.8
20260506233604 63 57 5.2 12.2 0.00 0.03 0.03 73 1013.8
20260506233124 63 39 6.1 12.2 0.00 0.03 0.03 73 1013.8
20260506232600 64 25 5.2 11.3 0.00 0.03 0.03 73 1013.8
20260506232101 64 45 7.8 13.0 0.00 0.03 0.03 72 1013.7
20260506231558 64 29 6.1 13.0 0.00 0.03 0.03 72 1013.7
20260506231103 64 347 4.3 12.2 0.00 0.03 0.03 73 1013.7
20260506230600 64 29 7.0 12.2 0.00 0.03 0.03 72 1013.6
20260506230100 64 335 7.0 12.2 0.00 0.03 0.03 72 1013.6
20260506225601 64 41 6.1 12.2 0.00 0.03 0.03 72 1013.4
20260506225100 65 36 4.3 10.4 0.00 0.03 0.03 72 1013.4
20260506224559 64 51 6.1 10.4 0.00 0.03 0.03 71 1013.4
20260506224100 65 40 4.3 10.4 0.00 0.03 0.03 71 1013.3
20260506223603 65 349 4.3 10.4 0.00 0.03 0.03 72 1013.3
20260506223103 65 19 5.2 10.4 0.00 0.03 0.03 71 1013.1
20260506222601 65 356 5.2 10.4 0.00 0.03 0.03 72 1013.1
20260506222059 65 326 5.2 9.6 0.00 0.03 0.03 70 1013.1
20260506221600 65 40 4.3 9.6 0.00 0.03 0.03 69 1013.3
20260506221059 65 329 4.3 11.3 0.00 0.03 0.03 72 1013.4
20260506220601 65 9 7.0 11.3 0.00 0.03 0.03 69 1013.4
20260506220100 65 333 5.2 11.3 0.00 0.03 0.03 72 1013.3
20260506215600 65 27 6.1 11.3 0.00 0.03 0.03 70 1013.2
20260506215100 65 55 5.2 11.3 0.00 0.03 0.03 70 1013.1
20260506214558 65 325 5.2 11.3 0.00 0.03 0.03 72 1013.1
20260506214101 64 285 7.8 11.3 0.00 0.03 0.03 70 1013.1
20260506213600 64 327 7.0 13.0 0.00 0.03 0.03 71 1013.2
20260506213124 64 53 7.0 13.0 0.00 0.03 0.03 71 1013.4
20260506212600 64 52 5.2 9.6 0.00 0.03 0.03 71 1013.5
20260506212102 64 358 6.1 9.6 0.00 0.03 0.03 72 1013.6
20260506211558 63 23 4.3 9.6 0.00 0.03 0.03 74 1013.8
20260506211100 63 51 3.5 9.6 0.00 0.03 0.03 74 1013.9
20260506210600 63 335 6.1 9.6 0.00 0.03 0.03 73 1013.5
20260506205600 63 346 4.3 9.6 0.00 0.03 0.03 73 1013.4
20260506205100 63 354 5.2 9.6 0.00 0.03 0.03 74 1013.5
20260506204559 63 39 4.3 8.7 0.00 0.03 0.03 73 1013.6
20260506204100 62 4 4.3 8.7 0.00 0.03 0.03 73 1013.7
20260506203605 62 41 5.2 8.7 0.00 0.03 0.03 72 1013.7
20260506203059 63 10 4.3 8.7 0.00 0.03 0.03 71 1013.7
20260506202601 63 339 4.3 8.7 0.00 0.03 0.03 72 1013.7
20260506202100 63 346 4.3 7.0 0.00 0.03 0.03 73 1013.9
20260506201600 62 124 4.3 7.0 0.00 0.03 0.03 74 1014.1
20260506201100 63 71 3.5 6.1 0.00 0.03 0.03 72 1014.3
20260506200600 63 231 0.9 6.1 0.00 0.03 0.03 72 1014.3
20260506200101 62 187 2.6 6.1 0.00 0.03 0.03 73 1014.4
20260506195600 63 17 3.5 6.1 0.00 0.03 0.03 72 1014.5
20260506195100 63 20 0.9 3.5 0.00 0.03 0.03 73 1014.5
20260506194635 62 154 0.9 7.0 0.00 0.03 0.03 73 1014.7
20260506194103 61 0 1.7 7.0 0.00 0.03 0.03 74 1014.7
20260506193600 61 33 1.7 6.1 0.00 0.03 0.03 72 1014.7
20260506193106 61 5 3.5 5.2 0.00 0.03 0.03 73 1014.7
20260506192600 61 92 0.9 5.2 0.00 0.03 0.03 75 1014.8
20260506192101 60 240 0.9 6.1 0.00 0.03 0.03 76 1014.8
20260506191607 59 14 2.6 7.0 0.00 0.03 0.03 75 1014.9
20260506191100 59 314 3.5 7.0 0.00 0.03 0.03 76 1014.7
20260506190603 59 67 3.5 9.6 0.00 0.03 0.03 76 1014.9
20260506190108 58 40 4.3 13.9 0.00 0.03 0.03 76 1014.6
20260506185600 59 20 7.8 13.9 0.00 0.03 0.03 76 1014.5
20260506185100 59 7 7.0 13.9 0.00 0.03 0.03 77 1014.0
20260506184605 59 359 7.0 14.8 0.00 0.03 0.03 77 1014.1
20260506184101 58 336 7.8 15.6 0.00 0.03 0.03 78 1014.2
20260506183601 58 25 10.4 15.6 0.00 0.03 0.03 76 1013.8
20260506183058 58 306 7.0 13.0 0.00 0.03 0.03 78 1013.9
20260506182600 58 4 5.2 13.9 0.00 0.03 0.03 80 1014.0
20260506182100 58 327 7.0 13.9 0.00 0.03 0.03 79 1013.9
20260506181602 58 354 7.0 13.9 0.00 0.03 0.03 78 1014.1
20260506181100 57 335 7.8 12.2 0.00 0.03 0.03 80 1014.3
20260506180601 57 329 6.1 11.3 0.00 0.03 0.03 81 1014.2
20260506180107 56 11 7.8 11.3 0.00 0.03 0.03 80 1014.2
20260506175600 56 8 5.2 13.0 0.00 0.03 0.03 82 1014.3
20260506175103 55 18 7.0 13.9 0.00 0.03 0.03 80 1014.2
20260506174602 55 18 8.7 13.9 0.00 0.03 0.03 80 1014.3
20260506174102 55 342 6.1 10.4 0.00 0.03 0.03 81 1014.4
20260506173601 55 13 5.2 12.2 0.00 0.03 0.03 83 1014.1
20260506173107 55 329 7.0 12.2 0.00 0.03 0.03 82 1014.0
20260506172559 54 328 7.0 12.2 0.00 0.03 0.03 81 1014.2
20260506172100 55 330 7.0 12.2 0.00 0.03 0.03 83 1014.5
20260506171604 54 14 4.3 12.2 0.00 0.03 0.03 83 1014.5
20260506171101 54 23 7.8 12.2 0.00 0.03 0.03 83 1014.6
20260506170601 54 355 6.1 10.4 0.00 0.03 0.03 82 1014.8
20260506170113 54 27 6.1 10.4 0.00 0.03 0.03 82 1014.8
20260506165603 54 15 6.1 9.6 0.00 0.03 0.03 83 1015.0
20260506165101 54 1 5.2 9.6 0.00 0.03 0.03 83 1014.9
20260506164615 54 1 6.1 9.6 0.00 0.03 0.03 83 1015.0
20260506164101 54 62 3.5 9.6 0.00 0.03 0.03 84 1015.0
20260506163602 53 33 4.3 13.0 0.01 0.03 0.03 85 1014.9
20260506163119 53 44 5.2 15.6 0.01 0.03 0.03 85 1014.8
20260506162600 53 332 7.0 15.6 0.01 0.03 0.03 85 1014.4
20260506162100 53 22 7.8 13.0 0.01 0.03 0.03 85 1014.3
20260506161616 53 333 7.0 13.0 0.01 0.03 0.03 86 1014.4
20260506161100 53 309 7.8 13.0 0.02 0.03 0.03 86 1014.6
20260506160603 53 16 4.3 8.7 0.03 0.03 0.03 86 1014.9
20260506160100 53 318 5.2 8.7 0.03 0.03 0.03 86 1015.0
20260506155601 53 337 5.2 11.3 0.03 0.03 0.03 86 1015.0
20260506155100 53 345 6.1 15.6 0.03 0.03 0.03 87 1014.5
20260506154628 53 325 8.7 15.6 0.03 0.03 0.03 88 1014.0
20260506154104 53 330 7.8 11.3 0.03 0.03 0.03 88 1013.7
20260506153601 53 325 6.1 8.7 0.02 0.02 0.02 88 1014.4
20260506153115 52 11 2.6 4.3 0.02 0.02 0.02 88 1015.3
20260506152601 53 4 2.6 6.1 0.02 0.02 0.02 88 1015.7
20260506152100 52 271 3.5 6.1 0.02 0.02 0.02 87 1016.2
20260506151602 53 289 3.5 6.1 0.02 0.02 0.02 87 1016.3
20260506151100 53 315 2.6 6.1 0.01 0.01 0.01 86 1016.2
20260506150600 52 304 3.5 6.1 0.00 0.00 0.00 85 1016.1
20260506145601 52 307 5.2 10.4 0.00 0.00 0.00 85 1015.4
20260506145100 52 339 5.2 11.3 0.00 0.00 0.00 84 1015.3
20260506144600 52 16 4.3 13.0 0.00 0.00 0.00 86 1015.1
20260506144100 52 20 8.7 13.0 0.00 0.00 0.00 85 1014.3
20260506143601 52 327 7.0 10.4 0.00 0.00 0.00 86 1014.1
20260506143108 52 10 5.2 8.7 0.00 0.00 0.00 85 1014.4
20260506142602 53 338 4.3 8.7 0.00 0.00 0.00 84 1015.1
20260506142102 53 24 3.5 9.6 0.00 0.00 0.00 84 1015.1
20260506141601 52 333 6.1 9.6 0.00 0.00 0.00 84 1015.1
20260506141101 52 316 6.1 9.6 0.00 0.00 0.00 84 1015.1
20260506140600 52 331 6.1 11.3 0.00 0.00 0.00 84 1014.7
20260506135600 52 4 6.1 12.2 0.00 0.00 0.00 84 1015.0
20260506135101 52 330 7.8 12.2 0.00 0.00 0.00 83 1014.3
20260506134558 52 23 7.0 12.2 0.00 0.00 0.00 84 1014.0
20260506134100 52 344 7.8 12.2 0.00 0.00 0.00 84 1013.9
20260506133600 52 326 8.7 13.0 0.00 0.00 0.00 84 1013.8
20260506133102 52 319 7.8 13.0 0.00 0.00 0.00 83 1013.8
20260506132601 52 328 7.0 12.2 0.00 0.00 0.00 84 1013.9
20260506132103 52 342 5.2 11.3 0.00 0.00 0.00 84 1013.9
20260506131601 52 339 7.0 11.3 0.00 0.00 0.00 84 1013.9
20260506131100 52 359 7.0 11.3 0.00 0.00 0.00 84 1013.8
20260506130600 52 354 5.2 10.4 0.00 0.00 0.00 85 1013.5
20260506125600 52 351 6.1 14.8 0.00 0.00 0.00 85 1013.6
20260506125104 52 15 7.8 14.8 0.00 0.00 0.00 85 1013.3
20260506124559 52 321 6.1 12.2 0.00 0.00 0.00 85 1013.2
20260506124100 52 329 5.2 12.2 0.00 0.00 0.00 85 1013.2
20260506123600 51 330 7.0 12.2 0.00 0.00 0.00 85 1013.5
20260506123103 51 299 7.0 13.0 0.00 0.00 0.00 85 1013.2
20260506122600 51 328 7.0 13.9 0.00 0.00 0.00 85 1013.2
20260506122100 51 333 8.7 13.9 0.00 0.00 0.00 85 1013.2
20260506121600 51 4 7.0 14.8 0.00 0.00 0.00 85 1013.1
20260506121101 51 340 8.7 14.8 0.00 0.00 0.00 84 1013.0
20260506120601 51 350 8.7 13.0 0.00 0.00 0.00 84 1013.1
20260506120101 52 6 7.8 13.0 0.00 0.00 0.00 85 1013.0
20260506115601 52 283 8.7 12.2 0.00 0.00 0.00 84 1013.1
20260506115100 52 316 6.1 11.3 0.00 0.00 0.00 84 1013.0
20260506114606 52 309 6.1 13.9 0.00 0.00 0.00 84 1012.8
20260506114101 52 342 8.7 13.9 0.00 0.00 0.00 83 1012.9
20260506113600 52 325 7.8 13.9 0.00 0.00 0.00 83 1012.6
20260506113100 53 329 7.8 12.2 0.00 0.00 0.00 82 1012.6
20260506112600 53 335 7.0 13.9 0.00 0.00 0.00 82 1012.3
20260506112100 53 332 9.6 13.9 0.00 0.00 0.00 81 1012.3
20260506111559 53 338 8.7 17.4 0.00 0.00 0.00 80 1012.2
20260506111100 53 323 9.6 17.4 0.00 0.00 0.00 79 1012.2
20260506110601 54 327 7.8 14.8 0.00 0.00 0.00 78 1012.1
20260506110104 54 331 7.0 11.3 0.00 0.00 0.00 78 1012.0
20260506105601 54 335 6.1 10.4 0.00 0.00 0.00 78 1012.0
20260506105101 54 308 6.1 10.4 0.00 0.00 0.00 78 1011.8
20260506104600 54 338 7.0 12.2 0.00 0.00 0.00 77 1011.7
20260506104100 54 330 7.0 12.2 0.00 0.00 0.00 78 1011.8
20260506103600 55 327 7.8 12.2 0.00 0.00 0.00 77 1011.7
20260506103059 55 326 7.8 13.0 0.00 0.00 0.00 77 1011.6
20260506102601 55 4 7.0 13.0 0.00 0.00 0.00 77 1011.5
20260506102104 55 292 7.8 13.0 0.00 0.00 0.00 77 1011.5
20260506101606 55 338 7.0 12.2 0.00 0.00 0.00 78 1011.3
20260506101101 55 300 7.8 12.2 0.00 0.00 0.00 77 1011.2
20260506100601 55 328 5.2 12.2 0.00 0.00 0.00 78 1011.3
20260506095601 55 346 6.1 11.3 0.00 0.00 0.00 77 1011.1
20260506095100 55 316 6.1 12.2 0.00 0.00 0.00 77 1010.9
20260506094629 55 22 7.0 12.2 0.00 0.00 0.00 77 1010.9
20260506094100 55 11 4.3 11.3 0.00 0.00 0.00 77 1010.9
20260506093600 55 339 7.0 11.3 0.00 0.00 0.00 77 1010.9
20260506093108 55 340 6.1 8.7 0.00 0.00 0.00 77 1010.7
20260506092601 55 349 3.5 8.7 0.00 0.00 0.00 78 1010.7
20260506092101 55 336 3.5 10.4 0.00 0.00 0.00 78 1010.7
20260506091559 55 4 7.0 10.4 0.00 0.00 0.00 77 1010.6
20260506091101 56 319 7.0 10.4 0.00 0.00 0.00 77 1010.7
20260506090600 56 349 7.0 10.4 0.00 0.00 0.00 77 1010.5
20260506085600 56 332 4.3 7.8 0.00 0.00 0.00 78 1010.4
20260506085100 56 329 4.3 7.8 0.00 0.00 0.00 78 1010.5
20260506084603 56 349 4.3 8.7 0.00 0.00 0.00 78 1010.3
20260506084103 56 354 5.2 8.7 0.00 0.00 0.00 78 1010.3
20260506083600 56 1 6.1 8.7 0.00 0.00 0.00 78 1010.4
20260506083104 56 319 4.3 7.8 0.00 0.00 0.00 78 1010.4
20260506082604 56 347 4.3 9.6 0.00 0.00 0.00 78 1010.3
20260506082100 56 334 4.3 11.3 0.00 0.00 0.00 78 1010.6
20260506081601 56 328 7.0 11.3 0.00 0.00 0.00 78 1010.2
20260506081101 56 309 7.8 11.3 0.00 0.00 0.00 78 1010.2
20260506080603 56 338 7.0 9.6 0.00 0.00 0.00 78 1010.3
20260506073108 57 33 3.5 7.0 0.00 0.00 0.00 80 1009.9
20260506072600 57 26 3.5 7.8 0.00 0.00 0.00 81 1009.7
20260506072059 57 348 5.2 7.8 0.00 0.00 0.00 80 1009.7
20260506071600 57 22 3.5 10.4 0.00 0.00 0.00 81 1009.6
20260506071100 57 43 3.5 10.4 0.00 0.00 0.00 81 1009.7
20260506070600 57 312 6.1 9.6 0.00 0.00 0.00 81 1009.8
20260506070110 57 40 3.5 9.6 0.00 0.00 0.00 81 1009.8
20260506062100 57 342 7.0 11.3 0.00 0.00 0.00 81 1009.9
20260506061612 57 316 7.0 11.3 0.00 0.00 0.00 82 1010.0
20260506061101 57 329 5.2 10.4 0.00 0.00 0.00 82 1009.9
20260506060601 57 307 6.1 10.4 0.00 0.00 0.00 82 1010.0
20260506060105 57 1 6.1 12.2 0.00 0.00 0.00 82 1009.9
20260506051100 59 346 7.0 11.3 0.00 0.00 0.00 80 1010.1
20260506050600 59 307 4.3 13.0 0.00 0.00 0.00 80 1009.9
20260506045101 59 339 7.0 12.2 0.00 0.00 0.00 81 1009.9
20260506044601 59 340 7.0 11.3 0.00 0.00 0.00 81 1009.8
20260506044100 60 330 6.1 9.6 0.00 0.00 0.00 80 1009.8
20260506043600 60 352 6.1 10.4 0.00 0.00 0.00 81 1009.9
20260506043102 60 326 5.2 10.4 0.00 0.00 0.00 81 1010.0
20260506042601 60 323 5.2 10.4 0.00 0.00 0.00 80 1010.0
20260506042104 60 348 5.2 13.9 0.00 0.00 0.00 81 1009.8
20260506041604 60 18 8.7 13.9 0.00 0.00 0.00 80 1009.9
20260506041101 61 343 7.0 13.0 0.00 0.00 0.00 80 1009.8
20260506040600 61 357 7.0 15.6 0.00 0.00 0.00 80 1009.8
20260506040105 61 319 10.4 16.5 0.00 0.00 0.00 80 1009.7
20260506035602 61 307 7.8 16.5 0.00 0.00 0.00 80 1009.8
20260506035100 61 342 9.6 15.6 0.00 0.00 0.00 80 1009.6
20260506034611 61 325 10.4 13.9 0.00 0.00 0.00 80 1009.4
20260506034059 62 359 9.6 13.9 0.00 0.00 0.00 80 1009.4
20260506033559 62 338 8.7 13.9 0.00 0.00 0.00 80 1009.1
20260506033058 62 348 8.7 13.9 0.00 0.00 0.00 80 1009.2
20260506032559 62 23 7.8 13.0 0.00 0.00 0.00 80 1009.1
20260506032103 62 323 6.1 11.3 0.00 0.00 0.00 80 1008.9
20260506031606 62 34 6.1 12.2 0.00 0.00 0.00 80 1008.8
20260506031059 63 1 7.8 13.0 0.00 0.00 0.00 79 1008.7
20260506030600 63 359 7.0 13.0 0.00 0.00 0.00 79 1008.8
20260506030056 63 1 8.7 12.2 0.00 0.00 0.00 79 1008.9
20260506025559 63 327 7.0 14.8 0.00 0.00 0.00 79 1008.7
20260506025059 63 327 7.0 14.8 0.00 0.00 0.00 79 1008.6
20260506024557 64 310 9.6 14.8 0.00 0.00 0.00 78 1008.6
20260506024059 64 352 7.8 14.8 0.00 0.00 0.00 78 1008.5
20260506023600 64 318 7.0 14.8 0.00 0.00 0.00 78 1008.5